Location: Greenwich
(51.4790°N, 0.0090°E)
Time: 14:10:38
(UTC+01:00)

Altair - Pass Details

Date: 22 June 2025
Orbit: 1502 x 1682 km, 47.2° (Epoch: 19 July)

Event Time Altitude Azimuth Distance (km) Brightness Sun altitude
Rises 03:22:55 0° 275° (W) 4,677 9.8 -9.0°
Reaches altitude 10° 03:25:56 10° 273° (W) 3,712 9.2 -8.7°
Maximum altitude 03:35:09 63° 195° (SSW) 1,732 7.6 -7.9°
Drops below altitude 10° 03:44:43 10° 118° (ESE) 3,846 9.7 -7.0°
Sets 03:47:55 0° 115° (ESE) 4,854 10.3 -6.7°
